Location: Hope
(40.9110°N, 74.9680°W)
Time: 00:41:39
(UTC-05:00)

N. Korean satellite - Pass Details

Date: 02 February 2019
Orbit: 456 x 510 km, 97.2° (Epoch: 20 February)

Event Time Altitude Azimuth Distance (km) Brightness Sun altitude
Rises 17:38:32 0° 176° (S) 2,599 10.5 -4.5°
Reaches altitude 10° 17:40:38 10° 180° (S) 1,721 9.6 -4.8°
Maximum altitude 17:44:18 57° 260° (W) 606 7.5 -5.5°
Drops below altitude 10° 17:48:00 10° 340° (NNW) 1,736 9.4 -6.2°
Sets 17:50:07 0° 344° (NNW) 2,624 10.3 -6.5°
